Location: Unspecified
(0.0000°N, 0.0000°E)
Time: 04:00:11
(UTC+00:00)

GONETS M03 - Visible Passes

Search period start: 23 April 2018 00:00
Search period end: 03 May 2018 00:00
Orbit: 1472 x 1500 km, 82.5° (Epoch: 22 April)

Date Brightness Start Highest point End Pass type
(mag) Time Alt. Az. Time Alt. Az. Time Alt. Az.
23 Apr ? 18:21:54 10° S 18:30:41 87° W 18:39:24 10° N visible
24 Apr ? 05:00:35 10° NE 05:06:44 21° E 05:12:52 10° SE visible
24 Apr ? 19:29:03 10° SW 19:35:34 24° W 19:42:06 10° NW visible
25 Apr ? 18:35:46 10° SSW 18:44:15 55° W 18:52:41 10° N visible
26 Apr ? 05:12:33 10° NNE 05:20:17 36° E 05:28:02 10° SSE visible
26 Apr ? 19:45:42 10° WSW 19:49:08 13° W 19:52:35 10° WNW visible
27 Apr ? 04:24:56 10° ENE 04:28:57 14° E 04:32:58 10° ESE visible
27 Apr ? 18:50:11 10° SSW 18:57:48 34° W 19:05:24 10° NNW visible
28 Apr ? 05:25:20 10° N 05:33:50 59° E 05:42:24 10° SSE visible
29 Apr ? 04:35:46 10° NE 04:42:31 25° E 04:49:16 10° SE visible
29 Apr ? 19:05:30 10° SW 19:11:21 20° W 19:17:14 10° NW visible
30 Apr ? 18:11:45 10° SSW 18:20:02 48° W 18:28:16 10° NNW visible
01 May ? 04:48:02 10° NNE 04:56:04 42° E 05:04:08 10° SSE visible
01 May ? 19:24:28 10° W 19:24:55 10° W 19:25:23 10° W visible
02 May ? 03:59:37 10° NE 04:04:45 17° E 04:09:52 10° ESE visible
02 May ? 18:26:24 10° SW 18:33:35 29° W 18:40:46 10° NNW visible
